EUS35RD LEBL-LFMN

Flight info

Callsign EUS35RD
Flight time 0h 54m
Altitude 33000
Route DALIN L16 BGR L110 DIBER DCT SOSUR DCT SOFFY DCT MRM DCT ABLAK
Aircraft B738/M-SDE2E3FGHIRWXY/LB1

Departure

Time 2026-05-07 06:07
Airport Josep Tarradellas Barcelona-El Prat Airport (LEBL)

Arrival

Time 2026-05-07 07:02
Airport Nice-Côte d'Azur Airport (LFMN)
Time Latitude Longitude Altitude Speed Heading
2026-05-07 05:38 41.29446 2.08064 2 ft 0 kts 65°
2026-05-07 05:57 41.29441 2.08049 2 ft 4 kts 68°
2026-05-07 05:57 41.29433 2.08021 3 ft 4 kts 83°
2026-05-07 05:57 41.29438 2.07994 4 ft 4 kts 143°
2026-05-07 05:57 41.29456 2.07981 3 ft 1 kts 155°
2026-05-07 05:58 41.29459 2.07979 3 ft 0 kts 155°
2026-05-07 06:00 41.29454 2.07981 3 ft 2 kts 155°
2026-05-07 06:01 41.29420 2.08002 3 ft 9 kts 155°
2026-05-07 06:01 41.29348 2.08046 2 ft 13 kts 155°
2026-05-07 06:01 41.29299 2.08110 2 ft 9 kts 92°
2026-05-07 06:01 41.29325 2.08195 3 ft 11 kts 65°
2026-05-07 06:02 41.29360 2.08297 2 ft 13 kts 66°
2026-05-07 06:02 41.29333 2.08400 2 ft 14 kts 150°
2026-05-07 06:02 41.29237 2.08460 2 ft 16 kts 155°
2026-05-07 06:02 41.29131 2.08524 4 ft 18 kts 156°
2026-05-07 06:03 41.29019 2.08591 6 ft 17 kts 155°
2026-05-07 06:03 41.28906 2.08660 5 ft 20 kts 151°
2026-05-07 06:03 41.28895 2.08829 2 ft 22 kts 64°
2026-05-07 06:03 41.28961 2.09017 4 ft 23 kts 66°
2026-05-07 06:04 41.29028 2.09216 2 ft 24 kts 65°
2026-05-07 06:04 41.29100 2.09424 2 ft 25 kts 65°
2026-05-07 06:04 41.29172 2.09633 2 ft 24 kts 65°
2026-05-07 06:04 41.29239 2.09828 4 ft 22 kts 65°
2026-05-07 06:05 41.29311 2.10001 4 ft 22 kts 66°
2026-05-07 06:05 41.29367 2.10175 2 ft 18 kts 76°
2026-05-07 06:05 41.29299 2.10292 4 ft 18 kts 154°
2026-05-07 06:05 41.29206 2.10287 5 ft 15 kts 240°
2026-05-07 06:06 41.29195 2.10254 4 ft 0 kts 244°
2026-05-07 06:06 41.29170 2.10183 6 ft 39 kts 245°
2026-05-07 06:07 41.28927 2.09474 6 ft 126 kts 245°
2026-05-07 06:07 41.28491 2.08156 306 ft 172 kts 250°
2026-05-07 06:07 41.27952 2.06727 1381 ft 176 kts 232°
2026-05-07 06:07 41.26898 2.05862 2115 ft 193 kts 185°
2026-05-07 06:08 41.25557 2.06278 2564 ft 208 kts 146°
2026-05-07 06:08 41.24183 2.06990 3105 ft 221 kts 180°
2026-05-07 06:08 41.22739 2.06367 3861 ft 220 kts 210°
2026-05-07 06:08 41.21364 2.05419 4640 ft 225 kts 205°
2026-05-07 06:09 41.19935 2.04601 5538 ft 223 kts 203°
2026-05-07 06:09 41.18493 2.03814 6366 ft 227 kts 209°
2026-05-07 06:09 41.17340 2.02333 6902 ft 238 kts 244°
2026-05-07 06:09 41.16960 2.00206 7659 ft 241 kts 273°
2026-05-07 06:10 41.17456 1.98094 8477 ft 244 kts 301°
2026-05-07 06:10 41.18516 1.96317 9313 ft 248 kts 311°
2026-05-07 06:10 41.19683 1.94650 10089 ft 252 kts 311°
2026-05-07 06:10 41.20881 1.92937 10835 ft 255 kts 311°
2026-05-07 06:11 41.22087 1.91184 11557 ft 259 kts 310°
2026-05-07 06:11 41.23449 1.89558 12163 ft 272 kts 323°
2026-05-07 06:11 41.25121 1.88158 12372 ft 298 kts 327°
2026-05-07 06:11 41.27021 1.86804 12546 ft 324 kts 339°
2026-05-07 06:12 41.29335 1.86412 12744 ft 351 kts
2026-05-07 06:12 41.31682 1.87502 13142 ft 368 kts 33°
2026-05-07 06:12 41.33463 1.89950 13808 ft 375 kts 60°
2026-05-07 06:12 41.34287 1.93226 14499 ft 376 kts 84°
2026-05-07 06:13 41.34431 1.96710 15195 ft 379 kts 89°
2026-05-07 06:13 41.34571 2.00246 15802 ft 385 kts 86°
2026-05-07 06:13 41.34637 2.03830 16393 ft 390 kts 97°
2026-05-07 06:13 41.33941 2.07314 17019 ft 392 kts 116°
2026-05-07 06:14 41.32709 2.10556 17698 ft 394 kts 119°
2026-05-07 06:14 41.31849 2.12697 18108 ft 397 kts 120°
2026-05-07 06:14 41.31405 2.13789 18300 ft 399 kts 120°
2026-05-07 06:14 41.28743 2.20361 19389 ft 407 kts 120°
2026-05-07 06:15 41.27426 2.23658 19924 ft 410 kts 120°
2026-05-07 06:15 41.26088 2.27034 20454 ft 414 kts 120°
2026-05-07 06:15 41.24743 2.30437 20969 ft 418 kts 120°
2026-05-07 06:15 41.23388 2.33872 21473 ft 422 kts 120°
2026-05-07 06:16 41.22016 2.37346 21973 ft 426 kts 120°
2026-05-07 06:16 41.20636 2.40839 22458 ft 429 kts 120°
2026-05-07 06:16 41.19239 2.44366 22955 ft 433 kts 120°
2026-05-07 06:16 41.17838 2.47926 23421 ft 437 kts 118°
2026-05-07 06:17 41.16939 2.51821 23779 ft 448 kts 98°
2026-05-07 06:17 41.17033 2.55967 24172 ft 454 kts 79°
2026-05-07 06:17 41.18073 2.59929 24563 ft 458 kts 62°
2026-05-07 06:17 41.19952 2.63325 24935 ft 459 kts 45°
2026-05-07 06:18 41.22196 2.66358 25314 ft 462 kts 43°
2026-05-07 06:18 41.24495 2.69365 25530 ft 469 kts 43°
2026-05-07 06:18 41.26851 2.72433 25678 ft 477 kts 43°
2026-05-07 06:18 41.29217 2.75545 25993 ft 480 kts 43°
2026-05-07 06:19 41.31580 2.78690 26382 ft 481 kts 43°
2026-05-07 06:19 41.33939 2.81860 26739 ft 484 kts 44°
2026-05-07 06:19 41.36283 2.85031 27045 ft 487 kts 44°
2026-05-07 06:19 41.38661 2.88259 27338 ft 490 kts 44°
2026-05-07 06:20 41.41055 2.91514 27648 ft 492 kts 44°
2026-05-07 06:20 41.43456 2.94781 27954 ft 495 kts 44°
2026-05-07 06:20 41.45873 2.98073 28251 ft 497 kts 44°
2026-05-07 06:20 41.48300 3.01380 28550 ft 499 kts 44°
2026-05-07 06:21 41.50729 3.04693 28949 ft 499 kts 44°
2026-05-07 06:21 41.53156 3.08007 29419 ft 498 kts 43°
2026-05-07 06:21 41.55566 3.11302 29867 ft 497 kts 43°
2026-05-07 06:21 41.57981 3.14606 30225 ft 497 kts 43°
2026-05-07 06:22 41.60395 3.17914 30535 ft 497 kts 43°
2026-05-07 06:22 41.65214 3.24527 31230 ft 496 kts 43°
2026-05-07 06:22 41.67644 3.27792 31553 ft 494 kts 38°
2026-05-07 06:23 41.70482 3.30282 31808 ft 485 kts 19°
2026-05-07 06:23 41.73665 3.31575 32149 ft 473 kts
2026-05-07 06:23 41.76903 3.31767 32535 ft 460 kts 350°
2026-05-07 06:23 41.79984 3.31081 32858 ft 449 kts 336°
2026-05-07 06:24 41.82853 3.29525 33001 ft 445 kts 330°
2026-05-07 06:24 41.85888 3.28443 33004 ft 463 kts 351°
2026-05-07 06:24 41.89141 3.28819 32996 ft 478 kts 10°
2026-05-07 06:24 41.92213 3.30596 33009 ft 487 kts 29°
2026-05-07 06:25 41.94771 3.33583 32994 ft 491 kts 49°
2026-05-07 06:25 41.96567 3.37495 33007 ft 494 kts 67°
2026-05-07 06:25 41.97439 3.41940 33018 ft 493 kts 81°
2026-05-07 06:25 41.97937 3.46494 33006 ft 493 kts 83°
2026-05-07 06:26 41.98825 3.55646 32995 ft 494 kts 83°
2026-05-07 06:26 41.99765 3.64799 33001 ft 495 kts 82°
2026-05-07 06:27 42.00766 3.73966 33007 ft 496 kts 82°
2026-05-07 06:27 42.01781 3.83160 33009 ft 498 kts 82°
2026-05-07 06:28 42.02789 3.92386 33010 ft 499 kts 82°
2026-05-07 06:28 42.03788 4.01647 33012 ft 501 kts 82°
2026-05-07 06:29 42.04781 4.10923 33014 ft 502 kts 82°
2026-05-07 06:29 42.05768 4.20221 33013 ft 502 kts 82°
2026-05-07 06:30 42.06751 4.29536 33015 ft 503 kts 82°
2026-05-07 06:30 42.08179 4.38650 33007 ft 501 kts 66°
2026-05-07 06:31 42.09773 4.42797 33019 ft 498 kts 54°
2026-05-07 06:31 42.11894 4.46451 33005 ft 493 kts 41°
2026-05-07 06:31 42.16994 4.52550 33015 ft 490 kts 37°
2026-05-07 06:32 42.21273 4.57544 33009 ft 490 kts 37°
2026-05-07 06:32 42.26387 4.63640 33010 ft 491 kts 38°
2026-05-07 06:33 42.31484 4.69809 33009 ft 491 kts 38°
2026-05-07 06:33 42.36564 4.75983 33006 ft 491 kts 38°
2026-05-07 06:34 42.41647 4.82167 33008 ft 491 kts 38°
2026-05-07 06:34 42.46714 4.88343 33003 ft 490 kts 38°
2026-05-07 06:35 42.51777 4.94526 33005 ft 490 kts 38°
2026-05-07 06:35 42.57229 4.99772 33017 ft 479 kts 21°
2026-05-07 06:36 42.63399 5.02827 33019 ft 471 kts 10°
2026-05-07 06:36 42.69736 5.05232 33009 ft 474 kts
2026-05-07 06:37 42.76056 5.07689 32992 ft 471 kts 10°
2026-05-07 06:37 42.82335 5.10194 33003 ft 470 kts 11°
2026-05-07 06:38 42.88603 5.12710 33002 ft 469 kts 11°
2026-05-07 06:38 42.94884 5.15233 32338 ft 474 kts 11°
2026-05-07 06:39 42.98041 5.16503 31677 ft 472 kts 11°
2026-05-07 06:39 43.01188 5.17771 30968 ft 472 kts 11°
2026-05-07 06:39 43.04333 5.19040 30400 ft 468 kts 11°
2026-05-07 06:39 43.07442 5.20298 29864 ft 464 kts 12°
2026-05-07 06:40 43.10521 5.21546 29265 ft 459 kts 12°
2026-05-07 06:40 43.13567 5.22781 28744 ft 453 kts 12°
2026-05-07 06:40 43.16572 5.24001 28223 ft 448 kts 12°
2026-05-07 06:40 43.19543 5.25207 27699 ft 443 kts 12°
2026-05-07 06:41 43.22482 5.26400 27183 ft 438 kts 12°
2026-05-07 06:41 43.25387 5.27581 26663 ft 433 kts 12°
2026-05-07 06:41 43.28262 5.28751 26163 ft 429 kts 12°
2026-05-07 06:41 43.31111 5.29911 25657 ft 425 kts 12°
2026-05-07 06:42 43.33934 5.31062 25174 ft 421 kts 12°
2026-05-07 06:42 43.36717 5.32263 24679 ft 419 kts 17°
2026-05-07 06:42 43.39364 5.33961 24188 ft 421 kts 27°
2026-05-07 06:42 43.41807 5.36163 23722 ft 419 kts 31°
2026-05-07 06:43 43.44173 5.38388 23172 ft 416 kts 31°
2026-05-07 06:43 43.46596 5.40626 22628 ft 412 kts 30°
2026-05-07 06:43 43.48920 5.42909 22117 ft 411 kts 40°
2026-05-07 06:43 43.50699 5.45906 21699 ft 410 kts 59°
2026-05-07 06:44 43.51860 5.49534 21310 ft 408 kts 68°
2026-05-07 06:44 43.52838 5.53169 20899 ft 405 kts 69°
2026-05-07 06:44 43.53802 5.56794 20488 ft 401 kts 68°
2026-05-07 06:44 43.54782 5.60372 20098 ft 398 kts 68°
2026-05-07 06:45 43.55780 5.63940 19709 ft 399 kts 68°
2026-05-07 06:45 43.56736 5.67479 19312 ft 399 kts 73°
2026-05-07 06:45 43.57174 5.71249 18927 ft 396 kts 84°
2026-05-07 06:45 43.57398 5.75015 18541 ft 393 kts 85°
2026-05-07 06:46 43.57602 5.78761 18138 ft 390 kts 85°
2026-05-07 06:46 43.57814 5.82475 17702 ft 387 kts 85°
2026-05-07 06:46 43.58037 5.86156 17295 ft 384 kts 85°
2026-05-07 06:46 43.58267 5.89805 16912 ft 380 kts 84°
2026-05-07 06:47 43.58502 5.93421 16541 ft 378 kts 84°
2026-05-07 06:47 43.58737 5.97020 16163 ft 375 kts 84°
2026-05-07 06:47 43.58971 6.00593 15793 ft 373 kts 84°
2026-05-07 06:47 43.59201 6.04151 15431 ft 372 kts 84°
2026-05-07 06:48 43.59429 6.07703 15062 ft 371 kts 85°
2026-05-07 06:48 43.59293 6.11241 14667 ft 370 kts 105°
2026-05-07 06:48 43.58468 6.14581 14353 ft 367 kts 111°
2026-05-07 06:48 43.57540 6.17862 13972 ft 367 kts 112°
2026-05-07 06:49 43.56604 6.21130 13596 ft 366 kts 112°
2026-05-07 06:49 43.55691 6.24345 13200 ft 364 kts 112°
2026-05-07 06:49 43.54787 6.27571 12894 ft 358 kts 112°
2026-05-07 06:49 43.53904 6.30749 12525 ft 353 kts 112°
2026-05-07 06:50 43.53034 6.33895 12401 ft 341 kts 112°
2026-05-07 06:50 43.52212 6.36868 12257 ft 332 kts 112°
2026-05-07 06:50 43.51402 6.39793 12120 ft 322 kts 112°
2026-05-07 06:50 43.50597 6.42631 11982 ft 313 kts 116°
2026-05-07 06:51 43.49381 6.45053 11704 ft 306 kts 135°
2026-05-07 06:51 43.47900 6.47159 11382 ft 306 kts 136°
2026-05-07 06:51 43.46412 6.49251 11040 ft 305 kts 136°
2026-05-07 06:51 43.44935 6.51343 10718 ft 305 kts 136°
2026-05-07 06:52 43.43460 6.53448 10377 ft 305 kts 136°
2026-05-07 06:52 43.41990 6.55555 10048 ft 305 kts 135°
2026-05-07 06:52 43.40538 6.57642 9924 ft 297 kts 135°
2026-05-07 06:52 43.39135 6.59660 9563 ft 293 kts 135°
2026-05-07 06:53 43.37793 6.61784 9075 ft 293 kts 122°
2026-05-07 06:53 43.37174 6.64400 8702 ft 288 kts 94°
2026-05-07 06:53 43.37367 6.67105 8404 ft 284 kts 71°
2026-05-07 06:53 43.38126 6.69607 8096 ft 283 kts 63°
2026-05-07 06:54 43.38971 6.72054 7774 ft 284 kts 63°
2026-05-07 06:54 43.39832 6.74511 7443 ft 286 kts 63°
2026-05-07 06:54 43.40689 6.76975 7124 ft 285 kts 63°
2026-05-07 06:54 43.41526 6.79398 6823 ft 281 kts 63°
2026-05-07 06:55 43.42355 6.81817 6521 ft 279 kts 63°
2026-05-07 06:55 43.43178 6.84227 6193 ft 276 kts 63°
2026-05-07 06:55 43.43987 6.86603 5891 ft 271 kts 63°
2026-05-07 06:55 43.44778 6.88935 5568 ft 267 kts 63°
2026-05-07 06:56 43.45552 6.91220 5321 ft 260 kts 63°
2026-05-07 06:56 43.46307 6.93451 5016 ft 254 kts 63°
2026-05-07 06:56 43.47126 6.95559 4736 ft 245 kts 47°
2026-05-07 06:56 43.48318 6.97115 4667 ft 236 kts 39°
2026-05-07 06:57 43.49489 6.98674 4374 ft 236 kts 42°
2026-05-07 06:57 43.50649 7.00295 4040 ft 233 kts 43°
2026-05-07 06:57 43.51763 7.01848 3739 ft 229 kts 43°
2026-05-07 06:57 43.52878 7.03396 3436 ft 225 kts 43°
2026-05-07 06:58 43.53972 7.04910 3155 ft 220 kts 43°
2026-05-07 06:58 43.55043 7.06391 2858 ft 216 kts 43°
2026-05-07 06:58 43.56091 7.07840 2575 ft 211 kts 43°
2026-05-07 06:58 43.57105 7.09243 2285 ft 202 kts 43°
2026-05-07 06:59 43.58084 7.10598 2024 ft 198 kts 43°
2026-05-07 06:59 43.59036 7.11913 1776 ft 189 kts 43°
2026-05-07 06:59 43.59949 7.13176 1497 ft 181 kts 44°
2026-05-07 06:59 43.60787 7.14334 1269 ft 163 kts 44°
2026-05-07 07:00 43.61557 7.15398 1064 ft 154 kts 44°
2026-05-07 07:00 43.62303 7.16432 844 ft 151 kts 44°
2026-05-07 07:00 43.63032 7.17447 654 ft 146 kts 43°
2026-05-07 07:00 43.63750 7.18433 464 ft 146 kts 43°
2026-05-07 07:01 43.64469 7.19423 268 ft 146 kts 43°
2026-05-07 07:01 43.65187 7.20418 55 ft 147 kts 43°
2026-05-07 07:01 43.65857 7.21333 21 ft 111 kts 45°
2026-05-07 07:01 43.66248 7.21876 22 ft 53 kts 44°
2026-05-07 07:02 43.66497 7.22215 22 ft 49 kts 45°
2026-05-07 07:02 43.66679 7.22461 20 ft 16 kts 41°
2026-05-07 07:02 43.66779 7.22442 20 ft 16 kts 315°
2026-05-07 07:02 43.66797 7.22309 21 ft 15 kts 234°
2026-05-07 07:03 43.66724 7.22209 21 ft 14 kts 225°
2026-05-07 07:03 43.66655 7.22113 21 ft 14 kts 225°
2026-05-07 07:03 43.66589 7.22022 21 ft 13 kts 225°
2026-05-07 07:03 43.66525 7.21934 21 ft 13 kts 225°
2026-05-07 07:04 43.66463 7.21849 21 ft 12 kts 225°
2026-05-07 07:04 43.66401 7.21764 21 ft 13 kts 225°
2026-05-07 07:04 43.66330 7.21666 21 ft 16 kts 225°
2026-05-07 07:04 43.66244 7.21549 21 ft 19 kts 225°
2026-05-07 07:05 43.66146 7.21413 21 ft 21 kts 225°
2026-05-07 07:05 43.66036 7.21263 21 ft 23 kts 225°
2026-05-07 07:05 43.65959 7.21130 21 ft 13 kts 261°
2026-05-07 07:05 43.66007 7.21058 21 ft 7 kts 339°
2026-05-07 07:06 43.66063 7.21043 23 ft 10 kts 352°
2026-05-07 07:06 43.66146 7.21028 21 ft 14 kts 352°
2026-05-07 07:06 43.66249 7.21006 23 ft 13 kts 351°
2026-05-07 07:06 43.66281 7.20999 21 ft 0 kts 351°
2026-05-07 07:07 43.66286 7.20998 21 ft 3 kts 351°
2026-05-07 07:07 43.66320 7.20956 23 ft 9 kts 285°
2026-05-07 07:07 43.66312 7.20852 21 ft 13 kts 261°
2026-05-07 07:07 43.66251 7.20765 21 ft 15 kts 174°
2026-05-07 07:08 43.66144 7.20789 21 ft 16 kts 171°
2026-05-07 07:08 43.66030 7.20815 21 ft 17 kts 171°
2026-05-07 07:08 43.65928 7.20822 21 ft 14 kts 193°
2026-05-07 07:08 43.65902 7.20771 21 ft 7 kts 283°
2026-05-07 07:09 43.65920 7.20713 22 ft 2 kts 293°
2026-05-07 07:09 43.65924 7.20700 21 ft 0 kts 294°